Weather History for Buckland, AK

Change the Weather History Date:

Saturday, March 2, 2013

  Actual Average (PASK) Record (PASK)
Temperature  
Mean Temperature -22 °F -  
Max Temperature -13 °F 3 °F 37 °F (2003)
Min Temperature -32 °F -4 °F -41 °F (1997)
Degree Days  
Heating Degree Days 88    
Moisture  
Dew Point -25 °F    
Average Humidity 69    
Maximum Humidity 91    
Minimum Humidity 49    
Precipitation  
Precipitation 0.00 in - - ()
Sea Level Pressure  
Sea Level Pressure 30.19 in    
Wind  
Wind Speed 3 mph (SSE)    
Max Wind Speed 10 mph    
Max Gust Speed -    
Visibility 10 miles    
Events      
Averages and records for this station are not official NWS values.
T = Trace of Precipitation, MM = Missing Value Source: NWS Daily Summary

Daily Weather History Graph

Daily Weather History Graph

Search for Another Location

Airport:

Trip Planner

Search our weather history database for the weather conditions in past years. The results will help you decide how hot, cold, wet, or windy it might be!

Date:

Astronomy

Mar. 02, 2013 Rise Set
Actual Time 8:51 AM AKST 7:03 PM AKST
Civil Twilight 8:00 AM AKST 7:54 PM AKST
Nautical Twilight 7:01 AM AKST 8:54 PM AKST
Astronomical Twilight 5:59 AM AKST 9:56 PM AKST
Moon 2:11 AM AKST (3/2) 8:58 AM AKST (3/2)
Length of Visible Light 11h 54m
Length of Day
10h 11m
Waning Gibbous, 72% of the Moon is Illuminated
Mar 2
Waning Gibbous
Mar 4
Last Quarter
Mar 11
New
Mar 19
First Quarter
Mar 27
Full

Hourly Weather History & Observations

Time (AKST) Temp. Windchill Dew Point Humidity Pressure Visibility Wind Dir Wind Speed Gust Speed Precip Events Conditions
12:16 AM -29.2 °F - - N/A% 30.20 in 10.0 mi Calm Calm - N/A   Unknown
12:36 AM -25.6 °F - -29.2 °F 83% 30.21 in 10.0 mi Calm Calm - N/A   Unknown
12:56 AM - - - N/A% 30.20 in 10.0 mi Calm Calm - N/A   Unknown
1:16 AM - - - N/A% 30.20 in 10.0 mi South 4.6 mph - N/A   Unknown
1:36 AM - - - N/A% 30.20 in 10.0 mi SSE 6.9 mph - N/A   Unknown
1:56 AM -31.0 °F - - N/A% 30.20 in 10.0 mi Calm Calm - N/A   Unknown
2:16 AM -32.8 °F -54.1 °F - N/A% 30.19 in 10.0 mi South 8.1 mph - N/A   Unknown
2:36 AM -32.8 °F -52.4 °F - N/A% 30.19 in 10.0 mi SSE 6.9 mph - N/A   Unknown
2:56 AM - - - N/A% 30.19 in 10.0 mi SSE 6.9 mph - N/A   Unknown
3:16 AM -32.8 °F -55.6 °F - N/A% 30.19 in 10.0 mi SSE 9.2 mph - N/A   Unknown
3:36 AM -32.8 °F -52.4 °F - N/A% 30.20 in 10.0 mi SSE 6.9 mph - N/A   Unknown
3:56 AM -32.8 °F -52.4 °F - N/A% 30.20 in 10.0 mi SE 6.9 mph - N/A   Unknown
4:16 AM -32.8 °F -50.5 °F - N/A% 30.19 in 10.0 mi SE 5.8 mph - N/A   Unknown
4:36 AM -29.2 °F -49.7 °F - N/A% 30.19 in 10.0 mi SSE 8.1 mph - N/A   Unknown
4:56 AM -31.0 °F -48.4 °F - N/A% 30.19 in 10.0 mi SE 5.8 mph - N/A   Unknown
5:16 AM -32.8 °F -54.1 °F - N/A% 30.19 in 10.0 mi SE 8.1 mph - N/A   Unknown
5:36 AM -32.8 °F -54.1 °F - N/A% 30.19 in 10.0 mi SSE 8.1 mph - N/A   Unknown
5:56 AM -32.8 °F -50.5 °F - N/A% 30.19 in 10.0 mi SSE 5.8 mph - N/A   Unknown
6:16 AM -32.8 °F -57.0 °F - N/A% 30.20 in 10.0 mi SSE 10.4 mph - N/A   Unknown
6:36 AM -32.8 °F -52.4 °F - N/A% 30.19 in 10.0 mi SSE 6.9 mph - N/A   Unknown
6:56 AM -32.8 °F - - N/A% 30.19 in 10.0 mi Calm Calm - N/A   Unknown
7:16 AM -32.8 °F -45.3 °F - N/A% 30.19 in 10.0 mi SSE 3.5 mph - N/A   Unknown
7:36 AM -32.8 °F - - N/A% 30.18 in 10.0 mi Calm Calm - N/A   Unknown
7:56 AM -32.8 °F -50.5 °F - N/A% 30.18 in 10.0 mi SSE 5.8 mph - N/A   Unknown
8:16 AM - - - N/A% 30.18 in 10.0 mi SSE 4.6 mph - N/A   Unknown
8:36 AM -29.2 °F -41.2 °F - N/A% 30.19 in 10.0 mi SE 3.5 mph - N/A   Unknown
8:56 AM -29.2 °F - - N/A% 30.19 in 10.0 mi Calm Calm - N/A   Unknown
9:16 AM -29.2 °F - - N/A% 30.19 in 10.0 mi Calm Calm - N/A   Unknown
9:36 AM - - - N/A% 30.19 in 10.0 mi Calm Calm - N/A   Unknown
9:56 AM - - - N/A% 30.19 in 10.0 mi Calm Calm - N/A   Unknown
10:16 AM -27.4 °F - - N/A% 30.20 in 10.0 mi Calm Calm - N/A   Unknown
10:36 AM - - - N/A% 30.20 in 10.0 mi Calm Calm - N/A   Unknown
10:56 AM - - - N/A% 30.20 in 10.0 mi South 3.5 mph - N/A   Unknown
11:16 AM -25.6 °F -39.8 °F - N/A% 30.21 in 10.0 mi SSE 4.6 mph - N/A   Unknown
11:36 AM - - - N/A% 30.20 in 10.0 mi SSE 3.5 mph - N/A   Unknown
11:56 AM - - - N/A% 30.19 in 10.0 mi ESE 3.5 mph - N/A   Unknown
12:16 PM -23.8 °F -41.6 °F - N/A% 30.20 in 10.0 mi SSE 6.9 mph - N/A   Unknown
12:36 PM - - - N/A% 30.20 in 10.0 mi SE 5.8 mph - N/A   Unknown
12:56 PM - - - N/A% 30.20 in 10.0 mi ESE 5.8 mph - N/A   Unknown
1:16 PM -23.8 °F - -25.6 °F 91% 30.21 in 10.0 mi Calm Calm - N/A   Unknown
1:36 PM - - - N/A% 30.20 in 10.0 mi Calm Calm - N/A   Unknown
1:56 PM -18.4 °F - -22.0 °F 84% 30.21 in 10.0 mi Calm Calm - N/A   Unknown
2:16 PM -16.6 °F - -25.6 °F 64% 30.20 in 10.0 mi Calm Calm - N/A   Unknown
2:36 PM -14.8 °F - -23.8 °F 64% 30.20 in 10.0 mi Calm Calm - N/A   Unknown
2:56 PM -14.8 °F - -22.0 °F 70% 30.19 in 10.0 mi Calm Calm - N/A   Unknown
3:16 PM -13.0 °F - -20.2 °F 70% 30.19 in 10.0 mi Calm Calm - N/A   Unknown
3:36 PM -14.8 °F - -27.4 °F 53% 30.19 in 10.0 mi Calm Calm - N/A   Unknown
3:56 PM -14.8 °F - -18.4 °F 84% 30.19 in 10.0 mi Calm Calm - N/A   Unknown
4:16 PM -13.0 °F - -27.4 °F 49% 30.19 in 10.0 mi Calm Calm - N/A   Unknown
4:36 PM -14.8 °F - -25.6 °F 58% 30.19 in 10.0 mi Calm Calm - N/A   Unknown
4:56 PM -14.8 °F - -27.4 °F 53% 30.19 in 10.0 mi Calm Calm - N/A   Unknown
5:16 PM -14.8 °F - -25.6 °F 58% 30.19 in 10.0 mi Calm Calm - N/A   Unknown
5:36 PM -14.8 °F - -23.8 °F 64% 30.18 in 10.0 mi Calm Calm - N/A   Unknown
5:56 PM -14.8 °F - -23.8 °F 64% 30.19 in 10.0 mi Calm Calm - N/A   Unknown
6:16 PM -16.6 °F - - N/A% 30.19 in 10.0 mi Calm Calm - N/A   Unknown
6:36 PM -16.6 °F - -27.4 °F 58% 30.19 in 10.0 mi Calm Calm - N/A   Unknown
6:56 PM -16.6 °F - -23.8 °F 70% 30.19 in 10.0 mi Calm Calm - N/A   Unknown
7:16 PM - - - N/A% 30.17 in 10.0 mi Calm Calm - N/A   Unknown
7:36 PM -20.2 °F - - N/A% 30.18 in 10.0 mi Calm Calm - N/A   Unknown
7:56 PM - - - N/A% 30.18 in 10.0 mi Calm Calm - N/A   Unknown
8:16 PM - - - N/A% 30.18 in 10.0 mi SSE 3.5 mph - N/A   Unknown
8:36 PM -22.0 °F - -25.6 °F 83% 30.18 in 10.0 mi Calm Calm - N/A   Unknown
8:56 PM - - - N/A% 30.17 in 10.0 mi Calm Calm - N/A   Unknown
9:16 PM - - - N/A% 30.17 in 10.0 mi Calm Calm - N/A   Unknown
9:36 PM -25.6 °F -39.8 °F - N/A% 30.17 in 10.0 mi South 4.6 mph - N/A   Unknown
9:56 PM - - - N/A% 30.17 in 10.0 mi South 3.5 mph - N/A   Unknown
10:16 PM -25.6 °F - - N/A% 30.18 in 10.0 mi Calm Calm - N/A   Unknown
10:36 PM - - - N/A% 30.18 in 10.0 mi Calm Calm - N/A   Unknown
10:56 PM -23.8 °F - -27.4 °F 83% 30.19 in 10.0 mi Calm Calm - N/A   Unknown
11:16 PM - - - N/A% 30.19 in 10.0 mi Calm Calm - N/A   Unknown
11:36 PM -25.6 °F - - N/A% 30.20 in 10.0 mi Calm Calm - N/A   Unknown
11:56 PM - - - N/A% 30.19 in 10.0 mi Calm Calm - N/A   Unknown